Tracking 30306 objects as of 22-Apr-2025
HD Live streaming from Space Station
objects crossing your sky now

STARLINK-1320

Track STARLINK-1320 now!
10-day predictions
STARLINK-1320 is classified as:


NORAD ID: 45572
Int'l Code: 2020-025AT
Perigee: 501.8 km
Apogee: 513.0 km
Inclination: 53.1 °
Period: 94.6 minutes
Semi major axis: 6878 km
RCS: Unknown
Launch date: April 22, 2020
Source: United States (US)
Launch site: AIR FORCE EASTERN TEST RANGE (AFETR)
Your satellite tracking list
Your tracking list is empty




NASA's NSSDC Master Catalog

Two Line Element Set (TLE):
1 45572U 20025AT  25112.14661645  .00024496  00000-0  10740-2 0  9995
2 45572  53.0575  65.8100 0008166  70.7916 289.3963 15.21847467276641
Source of the keplerian elements: AFSPC